Location: Caribou
(46.8667°N, 68.0167°W)
Time: 07:23:02
(UTC-05:00)

Daily predictions for brighter satellites

Satellite Brightness Start Highest point End
(mag) Time Altitude Azimuth Time Altitude Azimuth Time Altitude Azimuth
SJ-6B 3.4 17:36:46 10° SE 17:40:24 35° ENE 17:43:58 10° N
Nadezhda 1 Rocket 4.3 17:35:14 10° NNW 17:41:18 74° W 17:47:21 10° S
Cosmos 2237 Rocket 3.7 17:37:31 10° N 17:41:30 19° NE 17:45:28 10° E
Cosmos 1190 Rocket 4.2 17:37:33 10° SSW 17:42:45 79° WNW 17:47:59 10° NNE
Gbstr 26 Del rocket 3.7 17:39:48 10° SSW 17:43:11 29° SE 17:46:28 10° E
COSMOS 2428 3.1 17:37:54 10° NNW 17:43:18 42° NE 17:48:41 10° SE
Cosmos 2237 4.4 17:37:46 10° NNW 17:43:23 52° ENE 17:48:57 10° SE
CZ-4 R/B 4.2 17:40:35 10° SSW 17:44:05 26° W 17:47:38 10° NW
Cosmos 1300 Rocket 4.1 17:42:40 10° SSE 17:46:46 38° E 17:50:55 10° NNE
Meteor 2-4 Rocket 4.1 17:43:10 10° N 17:48:23 40° ENE 17:53:27 10° SE
ATLAS 2AS CENTAUR R/B 4.5 17:42:23 10° NW 17:48:44 24° N 17:55:01 10° NE
Spot 2 Rocket 4.3 17:45:15 10° ESE 17:49:37 30° ENE 17:54:01 10° N
Meteor 1-13 Rocket 4.2 17:44:06 10° N 17:49:37 64° ENE 17:55:14 10° SSE
Thor Agena Rocket 4.0 17:45:18 10° N 17:50:20 66° WNW 17:55:19 10° SSW
USA 215 3.8 17:45:16 10° NE 17:51:38 57° NNW 17:57:59 10° W
Cosmos 1238 Rocket 2.3 17:49:02 10° N 17:51:56 47° E 17:54:49 10° SSE
COSMO-SKYMED 1 2.7 17:49:14 10° NNE 17:53:36 86° WNW 17:57:57 10° SSW
Cosmos 1812 4.3 17:50:02 10° NNW 17:53:42 42° W 17:57:20 10° SSW
H-2A R/B 3.9 17:51:20 10° ESE 17:54:15 22° ENE 17:57:11 10° NNE
Cosmos 2360 Rocket 2.3 17:50:00 10° NNW 17:55:41 84° WSW 18:01:21 10° SSE
Cosmos 2219 Rocket 3.0 17:50:57 10° NNW 17:55:57 32° NE 18:00:56 10° ESE
Cosmos 2208 Rocket 4.3 17:51:54 10° NNW 17:57:15 52° ENE 18:02:31 10° SE
Resurs 01 Rocket 2.3 17:56:50 10° SE 18:00:48 34° ENE 18:04:47 10° N
Cosmos 1850 Rocket 4.5 17:57:55 10° S 18:02:49 39° ESE 18:07:45 10° NE
Cosmos 2219 3.8 17:59:18 10° SSE 18:04:26 35° ESE 18:09:34 10° NE
BREEZE-M DEB (TANK) 2.9 18:04:10 10° WNW 18:06:53 87° NNE 18:13:22 11° ESE
BREEZE-M DEB (TANK) 4.1 18:04:32 10° SSW 18:07:00 16° SSE 18:08:19 12° ESE
Cosmos 2181 Rocket 4.0 18:00:50 10° N 18:07:07 80° E 18:13:27 10° SSE
Cosmos 1954 Rocket 4.0 18:03:15 10° SSW 18:08:27 86° ESE 18:13:44 10° NNE
Cosmos 2227 Rocket 4.0 18:06:45 10° ESE 18:07:25 11° ESE 18:07:25 11° ESE
Cosmos 1536 3.2 18:05:19 10° SSE 18:09:01 38° E 18:12:45 10° NNE
Resurs 1-3 4.1 18:09:47 10° SE 18:13:50 38° ENE 18:17:55 10° N
HJ-1C 3.5 18:12:37 10° SSE 18:15:53 53° ENE 18:19:12 10° N
SL-16 R/B 3.8 18:12:46 10° N 18:16:21 17° NE 18:18:44 13° ENE
Cosmos 1709 Rocket 4.1 18:14:08 10° S 18:20:20 83° W 18:26:32 10° N
Cosmos 2074 Rocket 4.2 18:15:28 10° SSE 18:21:23 47° E 18:27:22 10° NNE
Okean 1 Rocket 3.0 18:20:57 10° S 18:25:25 74° E 18:29:55 10° NNE
Cosmos 2184 Rocket 4.2 18:20:34 10° SSE 18:26:35 50° E 18:32:34 10° NNE
Cosmos 1892 Rocket 4.3 18:22:43 10° N 18:26:37 31° ENE 18:29:32 15° SE
Cosmos 1602 4.1 18:24:41 10° SSW 18:28:34 69° W 18:32:29 10° N
Meteor 1-11 Rocket 3.8 18:24:25 10° S 18:30:15 88° ESE 18:36:15 10° NNE
Cosmos 1340 4.4 18:27:24 10° NNW 18:30:54 35° W 18:34:22 10° SSW
Cosmos 1025 Rocket 3.0 18:29:12 10° N 18:33:35 67° E 18:37:57 10° SSE
ALOS 2.3 18:31:30 10° SSE 18:36:10 85° WSW 18:40:53 10° NNW
USA 186 3.1 18:38:04 22° NE 18:38:04 22° NE 18:39:32 10° NNE
Cosmos 2333 Rocket 2.4 18:32:11 10° NNW 18:37:47 51° ENE 18:41:50 19° SE
SAR-Lupe-4 3.8 18:35:40 19° SE 18:37:54 45° ENE 18:41:21 10° N
SL-08 ROCKET BODY 4.4 18:33:24 10° S 18:39:32 71° E 18:45:43 10° NNE
Cosmos 1980 4.1 18:35:46 10° NNW 18:41:11 44° NE 18:44:14 24° ESE
Nadezhda 3 Rocket 4.3 18:35:53 10° N 18:41:41 41° ENE 18:46:44 13° SE
Cosmos 841 Rocket 4.5 18:39:05 10° N 18:43:25 26° NE 18:44:24 25° ENE
FENGYUN 3A 4.0 18:45:16 10° S 18:50:39 70° WSW 18:56:06 10° NNW
Abrixas rocket 2.9 18:49:49 10° SW 18:52:57 39° SSE 18:52:57 39° SSE
NOSS 0 Rocket 3.9 18:47:40 10° NNW 18:53:50 68° ENE 18:58:02 21° SE
Cosmos 1544 Rocket 3.9 18:49:49 10° SSE 18:53:50 38° E 18:57:52 10° NNE
Cosmos 2285 Rocket 4.0 18:47:20 10° NNW 18:53:50 90° ENE 19:00:15 10° SSE
GEOS 3 Rocket 3.8 18:51:19 20° NE 18:54:49 51° SE 18:59:56 10° SSW
Cosmos 1741 Rocket 4.0 18:49:49 10° SSW 18:55:03 81° WNW 19:00:19 10° NNE
Cosmos 1763 Rocket 4.0 18:50:27 10° N 18:55:13 37° ENE 18:56:19 34° E
Cosmos 2154 Rocket 4.3 18:49:56 10° SSE 18:55:54 45° E 19:01:53 10° NNE
Okean 1-7 Rocket 4.3 18:51:29 10° NNW 18:55:56 55° W 19:00:19 10° S
Meteor 1-5 Rocket 4.3 18:59:20 10° S 19:05:19 89° E 19:11:14 10° NNE
Cosmos 1437 3.9 19:02:23 10° N 19:04:26 33° NNE 19:04:26 33° NNE
Cosmos 1515 4.0 19:08:53 10° N 19:12:02 50° NNE 19:12:02 50° NNE
CZ-4B DEB 4.4 19:16:42 25° N 19:16:42 25° N 19:18:11 10° N
ATLAS CENTAUR R/B 3.9 19:14:08 10° SSW 19:14:33 12° SSW 19:14:33 12° SSW
Meteor 1-12 Rocket 4.3 19:15:33 10° S 19:21:21 55° E 19:27:06 10° NNE
Cosmos 405 Rocket 3.1 19:17:46 10° NNW 19:21:50 65° W 19:23:33 32° S
Cosmos 468 Rocket 4.1 19:17:11 10° NNW 19:22:26 75° WSW 19:25:21 27° S
USA 229 DEB 4.4 19:16:54 10° NW 19:23:49 55° WSW 19:29:53 14° SSE
USA 229 4.4 19:17:00 10° NW 19:23:55 56° WSW 19:29:56 15° SSE
Okean 2 4.3 19:21:13 10° NNW 19:25:16 48° W 19:29:17 10° SSW
Helios 1A 3.4 19:23:44 25° S 19:25:58 60° WSW 19:30:06 10° NNW
Cosmos 2237 Rocket 2.1 19:20:42 10° NNW 19:26:28 84° ENE 19:28:14 46° SSE
CZ-2D R/B 4.4 19:24:00 14° SSW 19:27:01 42° W 19:30:41 10° NNW
COSMOS 2428 4.2 19:22:23 10° NW 19:27:29 35° WSW 19:32:35 10° S
Helios 1B rocket 2.3 19:23:37 10° NNE 19:27:48 87° WNW 19:31:57 10° SSW
Cosmos 962 Rocket 4.4 19:21:55 10° S 19:27:57 58° E 19:33:58 10° NNE
Cosmos 1066 Rocket 4.1 19:23:55 10° N 19:29:34 66° ENE 19:30:18 59° ESE
Gbstr 26 Del rocket 3.0 19:26:04 10° WSW 19:29:29 60° NW 19:29:29 60° NW
Cosmos 2297 Rocket 4.4 19:26:08 10° S 19:26:20 11° S 19:26:20 11° S
USA 215 4.3 19:30:31 22° NE 19:33:58 37° N 19:39:50 10° WNW
Meteor 2-8 Rocket 4.3 19:29:53 10° N 19:35:57 68° E 19:36:57 58° SE
NOSS 3-1 (A) 3.9 19:29:11 10° NW 19:36:39 76° NE 19:39:19 47° ESE
Resurs 01 Rocket 3.7 19:33:34 10° SSW 19:37:19 27° W 19:41:05 10° NW
Cosmos 2219 Rocket 3.0 19:34:44 10° NW 19:40:06 48° WSW 19:43:37 21° S
ATLAS 2AS CENTAUR R/B 3.7 19:34:41 10° NW 19:42:12 38° NNE 19:43:50 35° ENE
Cosmos 1814 Rocket 4.2 19:37:09 10° NNW 19:42:17 66° WSW 19:43:32 49° SSW
ERS-1 Rocket 3.4 19:45:14 51° NNE 19:45:14 51° NNE 19:49:11 10° N
Cosmos 1939 Rocket 4.3 19:46:24 31° NNW 19:46:24 31° NNW 19:48:36 10° NNW
Envisat 2.9 19:44:07 69° S 19:44:44 82° WSW 19:49:51 10° NNW
USA 32 3.9 19:39:53 10° N 19:45:09 88° E 19:45:18 85° SSE
Cosmos 2219 4.3 19:43:02 10° SW 19:48:29 43° NW 19:53:57 10° NNE
Cosmos 2227 Rocket 2.9 19:45:55 10° SSW 19:49:27 40° S 19:49:27 40° S
NOSS 3-1 (C) 4.1 19:47:37 10° NW 19:55:07 75° SW 19:57:53 45° SSE
SL-16 R/B 2.4 19:55:49 10° NNW 20:00:38 60° N 20:00:38 60° N
Cosmos 332 Rocket 4.4 19:59:02 10° NNW 20:03:00 55° NW 20:03:00 55° NW
Cosmos 1295 Rocket 4.5 20:12:52 77° NNW 20:12:52 77° NNW 20:18:46 10° N
Cosmos 371 Rocket 4.4 20:09:21 10° NNW 20:12:35 41° NW 20:12:35 41° NW
H-2A R/B 4.1 20:21:53 20° N 20:21:53 20° N 20:23:37 10° N
Cosmos 2333 Rocket 3.9 20:16:56 10° NW 20:21:47 29° WSW 20:23:54 23° SW
USA 215 4.4 21:17:51 36° NNW 21:17:51 36° NNW 21:22:13 10° NW
ATLAS 2AS CENTAUR R/B 3.8 21:25:55 10° NW 21:31:17 46° NW 21:31:17 46° NW
